EW0159 Weather Reports


Display with metric or nautical units.
time (UTC)temp
F
wind
direction
speed
MPH
gust
MPH
rain 1hr
in
rain 24hr
in
rain mn
in
humidity
%
barometer
mb
20220702233037 72 298 3.0 5.0 0.00 0.01 0.01 65 1012.9
20220702231534 72 349 2.0 7.0 0.00 0.01 0.01 63 1013.0
20220702230036 71 348 2.0 6.0 0.00 0.01 0.01 67 1013.1
20220702224535 70 344 3.0 8.0 0.00 0.01 0.01 67 1013.1
20220702223033 69 284 5.0 9.0 0.00 0.01 0.01 67 1013.2
20220702221534 70 252 4.0 10.0 0.00 0.01 0.01 67 1013.2
20220702220025 69 267 2.0 8.0 0.00 0.01 0.01 69 1013.3
20220702214523 69 360 3.0 7.0 0.00 0.01 0.01 69 1013.4
20220702213023 68 265 3.0 8.0 0.00 0.01 0.01 71 1013.7
20220702211516 66 46 1.0 5.0 0.00 0.01 0.01 73 1013.7
20220702210016 66 337 1.0 5.0 0.00 0.01 0.01 73 1013.9
20220702204523 67 96 2.0 6.0 0.00 0.01 0.01 72 1013.8
20220702203011 66 93 2.0 5.0 0.00 0.01 0.01 74 1013.9
20220702201513 66 232 2.0 6.0 0.00 0.01 0.01 74 1014.1
20220702200007 65 249 1.0 7.0 0.00 0.01 0.01 75 1014.2
20220702194510 65 302 1.0 5.0 0.01 0.01 0.01 77 1014.3
20220702193002 64 228 3.0 7.0 0.01 0.01 0.01 75 1014.4
20220702191558 63 170 2.0 7.0 0.01 0.01 0.01 78 1014.7
20220702190057 63 139 2.0 4.0 0.01 0.01 0.01 78 1014.8
20220702184557 62 133 0.0 2.0 0.00 0.00 0.00 79 1014.7
20220702183054 62 142 2.0 4.0 0.00 0.00 0.00 79 1014.9
20220702181552 62 198 2.0 4.0 0.00 0.00 0.00 79 1014.8
20220702180050 61 331 0.0 4.0 0.00 0.00 0.00 80 1014.9
20220702174549 61 284 2.0 4.0 0.00 0.00 0.00 81 1014.9
20220702173059 61 192 1.0 5.0 0.00 0.00 0.00 81 1015.0
20220702171545 61 222 2.0 5.0 0.00 0.00 0.00 82 1015.1
20220702170043 60 347 1.0 4.0 0.00 0.00 0.00 82 1015.2
20220702164542 59 248 3.0 6.0 0.00 0.00 0.00 83 1015.2
20220702163039 59 279 0.0 3.0 0.00 0.00 0.00 84 1015.3
20220702161539 59 268 0.0 3.0 0.00 0.00 0.00 84 1015.4
20220702160038 58 276 1.0 4.0 0.00 0.00 0.00 84 1015.5
20220702154534 58 336 1.0 3.0 0.00 0.00 0.00 85 1015.6
20220702153030 58 30 1.0 5.0 0.00 0.00 0.00 86 1015.6
20220702151532 57 292 0.0 4.0 0.00 0.00 0.00 87 1015.6
20220702150028 57 254 1.0 4.0 0.00 0.00 0.00 88 1015.7
20220702144524 57 252 2.0 4.0 0.00 0.00 0.00 90 1015.7
20220702143022 56 342 0.0 4.0 0.00 0.00 0.00 91 1015.8
20220702141521 55 238 1.0 4.0 0.00 0.00 0.00 93 1015.8
20220702140020 55 270 1.0 3.0 0.00 0.00 0.00 95 1015.9
20220702134517 54 271 0.0 3.0 0.00 0.00 0.00 95 1015.8
20220702133016 54 133 0.0 2.0 0.00 0.00 0.00 95 1016.0
20220702131515 53 84 0.0 0.0 0.00 0.00 0.00 95 1016.1
20220702130017 52 84 0.0 0.0 0.00 0.00 0.00 95 1016.0
20220702124523 52 84 0.0 0.0 0.00 0.00 0.00 95 1016.1
20220702123014 52 84 0.0 1.0 0.00 0.00 0.00 95 1016.1
20220702121511 51 84 0.0 1.0 0.00 0.00 0.00 95 1016.1
20220702120011 51 84 0.0 1.0 0.00 0.00 0.00 95 1016.1
20220702114510 50 84 0.0 1.0 0.00 0.00 0.00 94 1016.0
20220702113009 50 84 0.0 1.0 0.00 0.00 0.00 94 1016.0
20220702111507 50 84 0.0 2.0 0.00 0.00 0.00 93 1016.0
20220702110007 50 84 0.0 2.0 0.00 0.00 0.00 93 1016.0
20220702104506 50 84 0.0 2.0 0.00 0.00 0.00 93 1015.9
20220702103004 50 84 0.0 1.0 0.00 0.00 0.00 93 1016.0
20220702101502 50 84 0.0 1.0 0.00 0.00 0.00 92 1016.0
20220702100102 50 84 0.0 2.0 0.00 0.00 0.00 92 1016.1
20220702094614 51 84 0.0 2.0 0.00 0.00 0.00 92 1016.2
20220702093057 51 84 0.0 2.0 0.00 0.00 0.00 92 1016.2
20220702091600 51 84 1.0 2.0 0.00 0.00 0.00 91 1016.1
20220702090053 52 84 1.0 2.0 0.00 0.00 0.00 91 1016.2
20220702084552 52 84 0.0 2.0 0.00 0.00 0.00 90 1016.2
20220702083049 53 84 1.0 2.0 0.00 0.00 0.00 89 1016.2
20220702081547 53 84 0.0 2.0 0.00 0.00 0.00 89 1016.1
20220702080044 54 84 0.0 2.0 0.00 0.00 0.00 88 1016.3
20220702074555 54 65 0.0 3.0 0.00 0.00 0.00 88 1016.3
20220702073041 54 86 0.0 2.0 0.00 0.00 0.00 88 1016.3
20220702071553 54 73 0.0 2.0 0.00 0.00 0.00 88 1016.2
20220702070043 55 73 0.0 2.0 0.00 0.00 0.00 88 1016.2
20220702064538 55 73 0.0 2.0 0.00 0.00 0.00 87 1016.2
20220702063045 56 70 0.0 2.0 0.00 0.00 0.00 87 1016.2
20220702061537 56 70 1.0 2.0 0.00 0.00 0.00 87 1016.2
20220702060036 57 82 0.0 3.0 0.00 0.00 0.00 86 1016.1
20220702054535 58 19 1.0 2.0 0.00 0.00 0.00 85 1016.1
20220702053036 58 215 0.0 1.0 0.00 0.00 0.00 84 1016.1
20220702051534 59 184 0.0 2.0 0.00 0.00 0.00 82 1016.1
20220702050035 60 263 0.0 2.0 0.00 0.00 0.00 81 1016.0
20220702044532 61 220 0.0 2.0 0.00 0.00 0.00 80 1015.9
20220702043036 62 285 0.0 4.0 0.00 0.00 0.00 78 1015.8
20220702041532 63 265 0.0 3.0 0.00 0.00 0.00 76 1015.5
20220702040031 65 282 2.0 4.0 0.00 0.00 0.00 74 1015.5
20220702034530 66 281 3.0 7.0 0.00 0.00 0.00 72 1015.4
20220702033031 68 267 1.0 5.0 0.00 0.00 0.00 70 1015.3
20220702031530 69 313 2.0 6.0 0.00 0.00 0.00 68 1015.3
20220702030029 71 254 1.0 5.0 0.00 0.00 0.00 65 1015.3
20220702024532 73 71 2.0 5.0 0.00 0.00 0.00 61 1015.2
20220702023028 74 22 1.0 3.0 0.00 0.00 0.00 58 1015.1
20220702021527 75 68 3.0 8.0 0.00 0.00 0.00 53 1015.1
20220702020026 76 316 2.0 7.0 0.00 0.00 0.00 53 1015.1
20220702014526 77 339 2.0 7.0 0.00 0.00 0.00 51 1015.2
20220702013023 77 316 2.0 7.0 0.00 0.00 0.00 51 1015.3
20220702011521 78 66 3.0 8.0 0.00 0.00 0.00 49 1015.3
20220702010020 79 351 2.0 5.0 0.00 0.00 0.00 48 1015.4
20220702004523 79 30 1.0 7.0 0.00 0.00 0.00 51 1015.4
20220702003017 78 279 3.0 8.0 0.00 0.00 0.00 50 1015.7
20220702001515 79 290 2.0 6.0 0.00 0.00 0.00 48 1015.8
20220702000013 80 5 3.0 7.0 0.00 0.00 0.00 45 1016.0
20220701234510 78 269 3.0 6.0 0.00 0.00 0.00 49 1016.1